Year,Month,Day,Hour,Minute,Value (Times are PST for temperature in C)
2007,07,17,00,00,18.60
2007,07,17,00,01,18.60
2007,07,17,00,02,18.60
2007,07,17,00,03,18.60
2007,07,17,00,04,18.60
2007,07,17,00,05,18.60
2007,07,17,00,06,18.60
2007,07,17,00,07,18.60
2007,07,17,00,08,18.60
2007,07,17,00,09,18.60
2007,07,17,00,10,18.60
2007,07,17,00,11,18.60
2007,07,17,00,12,18.60
2007,07,17,00,13,18.60
2007,07,17,00,14,18.60
2007,07,17,00,15,18.60
2007,07,17,00,16,18.60
2007,07,17,00,17,18.60
2007,07,17,00,18,18.60
2007,07,17,00,19,18.60
2007,07,17,00,20,18.60
2007,07,17,00,21,18.60
2007,07,17,00,22,18.60
2007,07,17,00,23,18.60
2007,07,17,00,24,18.60
2007,07,17,00,25,18.70
2007,07,17,00,26,18.70
2007,07,17,00,27,18.80
2007,07,17,00,28,18.80
2007,07,17,00,29,18.90
2007,07,17,00,30,18.90
2007,07,17,00,31,18.90
2007,07,17,00,32,18.90
2007,07,17,00,33,18.90
2007,07,17,00,34,18.90
2007,07,17,00,35,18.80
2007,07,17,00,36,18.80
2007,07,17,00,37,18.80
2007,07,17,00,38,18.90
2007,07,17,00,39,18.90
2007,07,17,00,40,18.90
2007,07,17,00,41,18.90
2007,07,17,00,42,18.90
2007,07,17,00,43,18.90
2007,07,17,00,44,18.90
2007,07,17,00,45,18.90
2007,07,17,00,46,18.90
2007,07,17,00,47,18.90
2007,07,17,00,48,18.90
2007,07,17,00,49,19.00
2007,07,17,00,50,19.00
2007,07,17,00,51,19.10
2007,07,17,00,52,19.10
2007,07,17,00,53,19.10
2007,07,17,00,54,19.20
2007,07,17,00,55,19.20
2007,07,17,00,56,19.20
2007,07,17,00,57,19.30
2007,07,17,00,58,19.30
2007,07,17,00,59,19.30
2007,07,17,01,00,19.30
2007,07,17,01,01,19.40
2007,07,17,01,02,19.40
2007,07,17,01,03,19.40
2007,07,17,01,04,19.40
2007,07,17,01,05,19.40
2007,07,17,01,06,19.40
2007,07,17,01,07,19.40
2007,07,17,01,08,19.30
2007,07,17,01,09,19.30
2007,07,17,01,10,19.30
2007,07,17,01,11,19.30
2007,07,17,01,12,19.20
2007,07,17,01,13,19.20
2007,07,17,01,14,19.10
2007,07,17,01,15,19.10
2007,07,17,01,16,19.10
2007,07,17,01,17,19.10
2007,07,17,01,18,19.00
2007,07,17,01,19,19.00
2007,07,17,01,20,19.00
2007,07,17,01,21,19.00
2007,07,17,01,22,19.00
2007,07,17,01,23,18.90
2007,07,17,01,24,18.90
2007,07,17,01,25,18.90
2007,07,17,01,26,18.90
2007,07,17,01,27,18.90
2007,07,17,01,28,18.90
2007,07,17,01,29,18.90
2007,07,17,01,30,18.90
2007,07,17,01,31,18.80
2007,07,17,01,32,18.80
2007,07,17,01,33,18.80
2007,07,17,01,34,18.80
2007,07,17,01,35,18.80
2007,07,17,01,36,18.70
2007,07,17,01,37,18.70
2007,07,17,01,38,18.70
2007,07,17,01,39,18.70
2007,07,17,01,40,18.70
2007,07,17,01,41,18.70
2007,07,17,01,42,18.70
2007,07,17,01,43,18.70
2007,07,17,01,44,18.70
2007,07,17,01,45,18.70
2007,07,17,01,46,18.70
2007,07,17,01,47,18.70
2007,07,17,01,48,18.70
2007,07,17,01,49,18.70
2007,07,17,01,50,18.70
2007,07,17,01,51,18.70
2007,07,17,01,52,18.70
2007,07,17,01,53,18.70
2007,07,17,01,54,18.70
2007,07,17,01,55,18.70
2007,07,17,01,56,18.70
2007,07,17,01,57,18.70
2007,07,17,01,58,18.70
2007,07,17,01,59,18.70
2007,07,17,02,00,18.70
2007,07,17,02,01,18.70
2007,07,17,02,02,18.70
2007,07,17,02,03,18.70
2007,07,17,02,04,18.70
2007,07,17,02,05,18.70
2007,07,17,02,06,18.70
2007,07,17,02,07,18.70
2007,07,17,02,08,18.70
2007,07,17,02,09,18.60
2007,07,17,02,10,18.60
2007,07,17,02,11,18.60
2007,07,17,02,12,18.60
2007,07,17,02,13,18.60
2007,07,17,02,14,18.60
2007,07,17,02,15,18.60
2007,07,17,02,16,18.50
2007,07,17,02,17,18.50
2007,07,17,02,18,18.50
2007,07,17,02,19,18.50
2007,07,17,02,20,18.50
2007,07,17,02,21,18.50
2007,07,17,02,22,18.40
2007,07,17,02,23,18.40
2007,07,17,02,24,18.40
2007,07,17,02,25,18.40
2007,07,17,02,26,18.40
2007,07,17,02,27,18.40
2007,07,17,02,28,18.40
2007,07,17,02,29,18.30
2007,07,17,02,30,18.30
2007,07,17,02,31,18.30
2007,07,17,02,32,18.30
2007,07,17,02,33,18.30
2007,07,17,02,34,18.30
2007,07,17,02,35,18.20
2007,07,17,02,36,18.20
2007,07,17,02,37,18.20
2007,07,17,02,38,18.20
2007,07,17,02,39,18.20
2007,07,17,02,40,18.20
2007,07,17,02,41,18.20
2007,07,17,02,42,18.20
2007,07,17,02,43,18.20
2007,07,17,02,44,18.20
2007,07,17,02,45,18.20
2007,07,17,02,46,18.20
2007,07,17,02,47,18.20
2007,07,17,02,48,18.20
2007,07,17,02,49,18.20
2007,07,17,02,50,18.20
2007,07,17,02,51,18.20
2007,07,17,02,52,18.20
2007,07,17,02,53,18.20
2007,07,17,02,54,18.20
2007,07,17,02,55,18.20
2007,07,17,02,56,18.20
2007,07,17,02,57,18.20
2007,07,17,02,58,18.20
2007,07,17,02,59,18.10
2007,07,17,03,00,18.10
2007,07,17,03,01,18.10
2007,07,17,03,02,18.10
2007,07,17,03,03,18.00
2007,07,17,03,04,18.00
2007,07,17,03,05,18.00
2007,07,17,03,06,17.90
2007,07,17,03,07,17.90
2007,07,17,03,08,17.90
2007,07,17,03,09,17.90
2007,07,17,03,10,17.90
2007,07,17,03,11,17.90
2007,07,17,03,12,17.90
2007,07,17,03,13,17.90
2007,07,17,03,14,17.90
2007,07,17,03,15,17.90
2007,07,17,03,16,17.90
2007,07,17,03,17,17.90
2007,07,17,03,18,17.90
2007,07,17,03,19,17.80
2007,07,17,03,20,17.80
2007,07,17,03,21,17.80
2007,07,17,03,22,17.80
2007,07,17,03,23,17.80
2007,07,17,03,24,17.80
2007,07,17,03,25,17.80
2007,07,17,03,26,17.80
2007,07,17,03,27,17.80
2007,07,17,03,28,17.80
2007,07,17,03,29,17.80
2007,07,17,03,30,17.80
2007,07,17,03,31,17.80
2007,07,17,03,32,17.80
2007,07,17,03,33,17.80
2007,07,17,03,34,17.80
2007,07,17,03,35,17.80
2007,07,17,03,36,17.80
2007,07,17,03,37,17.80
2007,07,17,03,38,17.80
2007,07,17,03,39,17.80
2007,07,17,03,40,17.80
2007,07,17,03,41,17.80
2007,07,17,03,42,17.80
2007,07,17,03,43,17.90
2007,07,17,03,44,17.90
2007,07,17,03,45,17.80
2007,07,17,03,46,17.80
2007,07,17,03,47,17.80
2007,07,17,03,48,17.80
2007,07,17,03,49,17.80
2007,07,17,03,50,17.80
2007,07,17,03,51,17.80
2007,07,17,03,52,17.80
2007,07,17,03,53,17.80
2007,07,17,03,54,17.80
2007,07,17,03,55,17.70
2007,07,17,03,56,17.70
2007,07,17,03,57,17.70
2007,07,17,03,58,17.70
2007,07,17,03,59,17.70
2007,07,17,04,00,17.70
2007,07,17,04,01,17.70
2007,07,17,04,02,17.70
2007,07,17,04,03,17.70
2007,07,17,04,04,17.70
2007,07,17,04,05,17.70
2007,07,17,04,06,17.60
2007,07,17,04,07,17.60
2007,07,17,04,08,17.60
2007,07,17,04,09,17.60
2007,07,17,04,10,17.60
2007,07,17,04,11,17.60
2007,07,17,04,12,17.60
2007,07,17,04,13,17.60
2007,07,17,04,14,17.60
2007,07,17,04,15,17.60
2007,07,17,04,16,17.60
2007,07,17,04,17,17.50
2007,07,17,04,18,17.50
2007,07,17,04,19,17.50
2007,07,17,04,20,17.50
2007,07,17,04,21,17.50
2007,07,17,04,22,17.50
2007,07,17,04,23,17.50
2007,07,17,04,24,17.40
2007,07,17,04,25,17.40
2007,07,17,04,26,17.40
2007,07,17,04,27,17.40
2007,07,17,04,28,17.40
2007,07,17,04,29,17.40
2007,07,17,04,30,17.40
2007,07,17,04,31,17.40
2007,07,17,04,32,17.40
2007,07,17,04,33,17.40
2007,07,17,04,34,17.40
2007,07,17,04,35,17.40
2007,07,17,04,36,17.40
2007,07,17,04,37,17.40
2007,07,17,04,38,17.40
2007,07,17,04,39,17.40
2007,07,17,04,40,17.40
2007,07,17,04,41,17.40
2007,07,17,04,42,17.50
2007,07,17,04,43,17.50
2007,07,17,04,44,17.50
2007,07,17,04,45,17.60
2007,07,17,04,46,17.60
2007,07,17,04,47,17.60
2007,07,17,04,48,17.60
2007,07,17,04,49,17.60
2007,07,17,04,50,17.60
2007,07,17,04,51,17.60
2007,07,17,04,52,17.60
2007,07,17,04,53,17.60
2007,07,17,04,54,17.60
2007,07,17,04,55,17.60
2007,07,17,04,56,17.60
2007,07,17,04,57,17.60
2007,07,17,04,58,17.60
2007,07,17,04,59,17.60
2007,07,17,05,00,17.60
2007,07,17,05,01,17.60
2007,07,17,05,02,17.60
2007,07,17,05,03,17.60
2007,07,17,05,04,17.60
2007,07,17,05,05,17.60
2007,07,17,05,06,17.60
2007,07,17,05,07,17.60
2007,07,17,05,08,17.60
2007,07,17,05,09,17.60
2007,07,17,05,10,17.60
2007,07,17,05,11,17.60
2007,07,17,05,12,17.70
2007,07,17,05,13,17.70
2007,07,17,05,14,17.70
2007,07,17,05,15,17.70
2007,07,17,05,16,17.70
2007,07,17,05,17,17.70
2007,07,17,05,18,17.70
2007,07,17,05,19,17.70
2007,07,17,05,20,17.70
2007,07,17,05,21,17.60
2007,07,17,05,22,17.60
2007,07,17,05,23,17.60
2007,07,17,05,24,17.50
2007,07,17,05,25,17.50
2007,07,17,05,26,17.50
2007,07,17,05,27,17.40
2007,07,17,05,28,17.40
2007,07,17,05,29,17.40
2007,07,17,05,30,17.40
2007,07,17,05,31,17.40
2007,07,17,05,32,17.30
2007,07,17,05,33,17.30
2007,07,17,05,34,17.30
2007,07,17,05,35,17.30
2007,07,17,05,36,17.20
2007,07,17,05,37,17.20
2007,07,17,05,38,17.20
2007,07,17,05,39,17.20
2007,07,17,05,40,17.20
2007,07,17,05,41,17.20
2007,07,17,05,42,17.20
2007,07,17,05,43,17.20
2007,07,17,05,44,17.20
2007,07,17,05,45,17.10
2007,07,17,05,46,17.10
2007,07,17,05,47,17.10
2007,07,17,05,48,17.10
2007,07,17,05,49,17.10
2007,07,17,05,50,17.10
2007,07,17,05,51,17.10
2007,07,17,05,52,17.10
2007,07,17,05,53,17.10
2007,07,17,05,54,17.20
2007,07,17,05,55,17.20
2007,07,17,05,56,17.20
2007,07,17,05,57,17.20
2007,07,17,05,58,17.20
2007,07,17,05,59,17.20
2007,07,17,06,00,17.20
2007,07,17,06,01,17.20
2007,07,17,06,02,17.20
2007,07,17,06,03,17.20
2007,07,17,06,04,17.20
2007,07,17,06,05,17.20
2007,07,17,06,06,17.20
2007,07,17,06,07,17.20
2007,07,17,06,08,17.20
2007,07,17,06,09,17.20
2007,07,17,06,10,17.20
2007,07,17,06,11,17.20
2007,07,17,06,12,17.20
2007,07,17,06,13,17.20
2007,07,17,06,14,17.20
2007,07,17,06,15,17.30
2007,07,17,06,16,17.30
2007,07,17,06,17,17.30
2007,07,17,06,18,17.30
2007,07,17,06,19,17.30
2007,07,17,06,20,17.30
2007,07,17,06,21,17.30
2007,07,17,06,22,17.30
2007,07,17,06,23,17.30
2007,07,17,06,24,17.30
2007,07,17,06,25,17.30
2007,07,17,06,26,17.30
2007,07,17,06,27,17.30
2007,07,17,06,28,17.30
2007,07,17,06,29,17.30
2007,07,17,06,30,17.40
2007,07,17,06,31,17.40
2007,07,17,06,32,17.40
2007,07,17,06,33,17.40
2007,07,17,06,34,17.40
2007,07,17,06,35,17.40
2007,07,17,06,36,17.40
2007,07,17,06,37,17.40
2007,07,17,06,38,17.50
2007,07,17,06,39,17.50
2007,07,17,06,40,17.50
2007,07,17,06,41,17.50
2007,07,17,06,42,17.60
2007,07,17,06,43,17.60
2007,07,17,06,44,17.60
2007,07,17,06,45,17.70
2007,07,17,06,46,17.70
2007,07,17,06,47,17.70
2007,07,17,06,48,17.70
2007,07,17,06,49,17.70
2007,07,17,06,50,17.80
2007,07,17,06,51,17.80
2007,07,17,06,52,17.80
2007,07,17,06,53,17.80
2007,07,17,06,54,17.80
2007,07,17,06,55,17.90
2007,07,17,06,56,17.90
2007,07,17,06,57,17.90
2007,07,17,06,58,18.00
2007,07,17,06,59,18.00
2007,07,17,07,00,18.00
2007,07,17,07,01,18.10
2007,07,17,07,02,18.10
2007,07,17,07,03,18.10
2007,07,17,07,04,18.20
2007,07,17,07,05,18.20
2007,07,17,07,06,18.20
2007,07,17,07,07,18.20
2007,07,17,07,08,18.20
2007,07,17,07,09,18.30
2007,07,17,07,10,18.30
2007,07,17,07,11,18.30
2007,07,17,07,12,18.30
2007,07,17,07,13,18.30
2007,07,17,07,14,18.40
2007,07,17,07,15,18.40
2007,07,17,07,16,18.40
2007,07,17,07,17,18.40
2007,07,17,07,18,18.40
2007,07,17,07,19,18.50
2007,07,17,07,20,18.50
2007,07,17,07,21,18.50
2007,07,17,07,22,18.50
2007,07,17,07,23,18.60
2007,07,17,07,24,18.60
2007,07,17,07,25,18.60
2007,07,17,07,26,18.60
2007,07,17,07,27,18.60
2007,07,17,07,28,18.70
2007,07,17,07,29,18.70
2007,07,17,07,30,18.70
2007,07,17,07,31,18.70
2007,07,17,07,32,18.70
2007,07,17,07,33,18.80
2007,07,17,07,34,18.80
2007,07,17,07,35,18.80
2007,07,17,07,36,18.80
2007,07,17,07,37,18.80
2007,07,17,07,38,18.80
2007,07,17,07,39,18.80
2007,07,17,07,40,18.80
2007,07,17,07,41,18.80
2007,07,17,07,42,18.90
2007,07,17,07,43,18.90
2007,07,17,07,44,18.90
2007,07,17,07,45,18.90
2007,07,17,07,46,18.90
2007,07,17,07,47,18.90
2007,07,17,07,48,18.90
2007,07,17,07,49,18.90
2007,07,17,07,50,19.00
2007,07,17,07,51,19.00
2007,07,17,07,52,19.00
2007,07,17,07,53,19.00
2007,07,17,07,54,19.00
2007,07,17,07,55,19.10
2007,07,17,07,56,19.10
2007,07,17,07,57,19.10
2007,07,17,07,58,19.10
2007,07,17,07,59,19.10
2007,07,17,08,00,19.20
2007,07,17,08,01,19.20
2007,07,17,08,02,19.20
2007,07,17,08,03,19.20
2007,07,17,08,04,19.20
2007,07,17,08,05,19.20
2007,07,17,08,06,19.20
2007,07,17,08,07,19.20
2007,07,17,08,08,19.20
2007,07,17,08,09,19.20
2007,07,17,08,10,19.30
2007,07,17,08,11,19.30
2007,07,17,08,12,19.30
2007,07,17,08,13,19.30
2007,07,17,08,14,19.30
2007,07,17,08,15,19.30
2007,07,17,08,16,19.30
2007,07,17,08,17,19.30
2007,07,17,08,18,19.30
2007,07,17,08,19,19.30
2007,07,17,08,20,19.30
2007,07,17,08,21,19.30
2007,07,17,08,22,19.30
2007,07,17,08,23,19.30
2007,07,17,08,24,19.30
2007,07,17,08,25,19.30
2007,07,17,08,26,19.30
2007,07,17,08,27,19.30
2007,07,17,08,28,19.30
2007,07,17,08,29,19.30
2007,07,17,08,30,19.30
2007,07,17,08,31,19.30
2007,07,17,08,32,19.30
2007,07,17,08,33,19.30
2007,07,17,08,34,19.30
2007,07,17,08,35,19.30
2007,07,17,08,36,19.40
2007,07,17,08,37,19.40
2007,07,17,08,38,19.40
2007,07,17,08,39,19.40
2007,07,17,08,40,19.40
2007,07,17,08,41,19.40
2007,07,17,08,42,19.40
2007,07,17,08,43,19.40
2007,07,17,08,44,19.40
2007,07,17,08,45,19.40
2007,07,17,08,46,19.40
2007,07,17,08,47,19.40
2007,07,17,08,48,19.40
2007,07,17,08,49,19.40
2007,07,17,08,50,19.40
2007,07,17,08,51,19.40
2007,07,17,08,52,19.40
2007,07,17,08,53,19.40
2007,07,17,08,54,19.40
2007,07,17,08,55,19.40
2007,07,17,08,56,19.40
2007,07,17,08,57,19.40
2007,07,17,08,58,19.40
2007,07,17,08,59,19.40
2007,07,17,09,00,19.50
2007,07,17,09,01,19.40
2007,07,17,09,02,19.50
2007,07,17,09,03,19.50
2007,07,17,09,04,19.50
2007,07,17,09,05,19.50
2007,07,17,09,06,19.50
2007,07,17,09,07,19.50
2007,07,17,09,08,19.50
2007,07,17,09,09,19.40
2007,07,17,09,10,19.40
2007,07,17,09,11,19.40
2007,07,17,09,12,19.30
2007,07,17,09,13,19.30
2007,07,17,09,14,19.30
2007,07,17,09,15,19.30
2007,07,17,09,16,19.30
2007,07,17,09,17,19.30
2007,07,17,09,18,19.30
2007,07,17,09,19,19.20
2007,07,17,09,20,19.20
2007,07,17,09,21,19.20
2007,07,17,09,22,19.20
2007,07,17,09,23,19.20
2007,07,17,09,24,19.20
2007,07,17,09,25,19.20
2007,07,17,09,26,19.20
2007,07,17,09,27,19.20
2007,07,17,09,28,19.20
2007,07,17,09,29,19.20
2007,07,17,09,30,19.20
2007,07,17,09,31,19.10
2007,07,17,09,32,19.10
2007,07,17,09,33,19.00
2007,07,17,09,34,18.90
2007,07,17,09,35,18.90
2007,07,17,09,36,18.80
2007,07,17,09,37,18.80
2007,07,17,09,38,18.80
2007,07,17,09,39,18.80
2007,07,17,09,40,18.80
2007,07,17,09,41,18.80
2007,07,17,09,42,18.70
2007,07,17,09,43,18.70
2007,07,17,09,44,18.70
2007,07,17,09,45,18.60
2007,07,17,09,46,18.60
2007,07,17,09,47,18.50
2007,07,17,09,48,18.40
2007,07,17,09,49,18.40
2007,07,17,09,50,18.30
2007,07,17,09,51,18.20
2007,07,17,09,52,18.20
2007,07,17,09,53,18.10
2007,07,17,09,54,18.10
2007,07,17,09,55,18.10
2007,07,17,09,56,18.10
2007,07,17,09,57,18.10
2007,07,17,09,58,18.10
2007,07,17,09,59,18.00
2007,07,17,10,00,18.00
2007,07,17,10,01,17.90
2007,07,17,10,02,17.90
2007,07,17,10,03,17.90
2007,07,17,10,04,17.90
2007,07,17,10,05,17.90
2007,07,17,10,06,17.90
2007,07,17,10,07,17.90
2007,07,17,10,08,17.90
2007,07,17,10,09,17.90
2007,07,17,10,10,17.90
2007,07,17,10,11,17.90
2007,07,17,10,12,17.90
2007,07,17,10,13,17.90
2007,07,17,10,14,17.90
2007,07,17,10,15,17.90
2007,07,17,10,16,17.90
2007,07,17,10,17,17.90
2007,07,17,10,18,18.00
2007,07,17,10,19,18.00
2007,07,17,10,20,18.00
2007,07,17,10,21,18.00
2007,07,17,10,22,18.00
2007,07,17,10,23,18.10
2007,07,17,10,24,18.10
2007,07,17,10,25,18.10
2007,07,17,10,26,18.10
2007,07,17,10,27,18.20
2007,07,17,10,28,18.20
2007,07,17,10,29,18.20
2007,07,17,10,30,18.20
2007,07,17,10,31,18.20
2007,07,17,10,32,18.20
2007,07,17,10,33,18.20
2007,07,17,10,34,18.30
2007,07,17,10,35,18.30
2007,07,17,10,36,18.30
2007,07,17,10,37,18.30
2007,07,17,10,38,18.30
2007,07,17,10,39,18.40
2007,07,17,10,40,18.40
2007,07,17,10,41,18.50
2007,07,17,10,42,18.50
2007,07,17,10,43,18.60
2007,07,17,10,44,18.60
2007,07,17,10,45,18.70
2007,07,17,10,46,18.70
2007,07,17,10,47,18.70
2007,07,17,10,48,18.80
2007,07,17,10,49,18.80
2007,07,17,10,50,18.80
2007,07,17,10,51,18.90
2007,07,17,10,52,18.90
2007,07,17,10,53,18.90
2007,07,17,10,54,19.00
2007,07,17,10,55,19.00
2007,07,17,10,56,19.10
2007,07,17,10,57,19.20
2007,07,17,10,58,19.30
2007,07,17,10,59,19.40
2007,07,17,11,00,19.50
2007,07,17,11,01,19.60
2007,07,17,11,02,19.60
2007,07,17,11,03,19.70
2007,07,17,11,04,19.90
2007,07,17,11,05,20.00
2007,07,17,11,06,20.00
2007,07,17,11,07,20.10
2007,07,17,11,08,20.10
2007,07,17,11,09,20.10
2007,07,17,11,10,20.10
2007,07,17,11,11,20.10
2007,07,17,11,12,20.20
2007,07,17,11,13,20.20
2007,07,17,11,14,20.30
2007,07,17,11,15,20.40
2007,07,17,11,16,20.40
2007,07,17,11,17,20.40
2007,07,17,11,18,20.50
2007,07,17,11,19,20.50
2007,07,17,11,20,20.50
2007,07,17,11,21,20.50
2007,07,17,11,22,20.40
2007,07,17,11,23,20.40
2007,07,17,11,24,20.30
2007,07,17,11,25,20.40
2007,07,17,11,26,20.40
2007,07,17,11,27,20.40
2007,07,17,11,28,20.50
2007,07,17,11,29,20.50
2007,07,17,11,30,20.60
2007,07,17,11,31,20.60
2007,07,17,11,32,20.60
2007,07,17,11,33,20.60
2007,07,17,11,34,20.60
2007,07,17,11,35,20.50
2007,07,17,11,36,20.50
2007,07,17,11,37,20.50
2007,07,17,11,38,20.40
2007,07,17,11,39,20.40
2007,07,17,11,40,20.40
2007,07,17,11,41,20.30
2007,07,17,11,42,20.30
2007,07,17,11,43,20.30
2007,07,17,11,44,20.30
2007,07,17,11,45,20.30
2007,07,17,11,46,20.30
2007,07,17,11,47,20.30
2007,07,17,11,48,20.40
2007,07,17,11,49,20.40
2007,07,17,11,50,20.40
2007,07,17,11,51,20.40
2007,07,17,11,52,20.40
2007,07,17,11,53,20.40
2007,07,17,11,54,20.40
2007,07,17,11,55,20.40
2007,07,17,11,56,20.30
2007,07,17,11,57,20.30
2007,07,17,11,58,20.30
2007,07,17,11,59,20.30
2007,07,17,12,00,20.30
2007,07,17,12,01,20.30
2007,07,17,12,02,20.30
2007,07,17,12,03,20.30
2007,07,17,12,04,20.30
2007,07,17,12,05,20.30
2007,07,17,12,06,20.30
2007,07,17,12,07,20.30
2007,07,17,12,08,20.30
2007,07,17,12,09,20.20
2007,07,17,12,10,20.20
2007,07,17,12,11,20.20
2007,07,17,12,12,20.10
2007,07,17,12,13,20.10
2007,07,17,12,14,19.90
2007,07,17,12,15,19.90
2007,07,17,12,16,19.80
2007,07,17,12,17,19.80
2007,07,17,12,18,19.70
2007,07,17,12,19,19.70
2007,07,17,12,20,19.70
2007,07,17,12,21,19.70
2007,07,17,12,22,19.70
2007,07,17,12,23,19.60
2007,07,17,12,24,19.60
2007,07,17,12,25,19.60
2007,07,17,12,26,19.60
2007,07,17,12,27,19.50
2007,07,17,12,28,19.50
2007,07,17,12,29,19.40
2007,07,17,12,30,19.40
2007,07,17,12,31,19.40
2007,07,17,12,32,19.50
2007,07,17,12,33,19.50
2007,07,17,12,34,19.40
2007,07,17,12,35,19.30
2007,07,17,12,36,19.30
2007,07,17,12,37,19.30
2007,07,17,12,38,19.40
2007,07,17,12,39,19.40
2007,07,17,12,40,19.40
2007,07,17,12,41,19.30
2007,07,17,12,42,19.20
2007,07,17,12,43,19.10
2007,07,17,12,44,19.00
2007,07,17,12,45,19.00
2007,07,17,12,46,18.90
2007,07,17,12,47,18.90
2007,07,17,12,48,18.90
2007,07,17,12,49,18.90
2007,07,17,12,50,18.90
2007,07,17,12,51,18.90
2007,07,17,12,52,18.90
2007,07,17,12,53,18.90
2007,07,17,12,54,19.00
2007,07,17,12,55,19.00
2007,07,17,12,56,19.10
2007,07,17,12,57,19.20
2007,07,17,12,58,19.20
2007,07,17,12,59,19.30
2007,07,17,13,00,19.30
2007,07,17,13,01,19.40
2007,07,17,13,02,19.40
2007,07,17,13,03,19.40
2007,07,17,13,04,19.40
2007,07,17,13,05,19.40
2007,07,17,13,06,19.50
2007,07,17,13,07,19.60
2007,07,17,13,08,19.70
2007,07,17,13,09,19.80
2007,07,17,13,10,19.90
2007,07,17,13,11,20.00
2007,07,17,13,12,20.10
2007,07,17,13,13,20.10
2007,07,17,13,14,20.10
2007,07,17,13,15,20.20
2007,07,17,13,16,20.20
2007,07,17,13,17,20.20
2007,07,17,13,18,20.30
2007,07,17,13,19,20.30
2007,07,17,13,20,20.40
2007,07,17,13,21,20.40
2007,07,17,13,22,20.30
2007,07,17,13,23,20.30
2007,07,17,13,24,20.30
2007,07,17,13,25,20.30
2007,07,17,13,26,20.40
2007,07,17,13,27,20.40
2007,07,17,13,28,20.50
2007,07,17,13,29,20.60
2007,07,17,13,30,20.70
2007,07,17,13,31,20.80
2007,07,17,13,32,20.90
2007,07,17,13,33,21.00
2007,07,17,13,34,21.10
2007,07,17,13,35,21.10
2007,07,17,13,36,21.00
2007,07,17,13,37,21.00
2007,07,17,13,38,20.90
2007,07,17,13,39,20.80
2007,07,17,13,40,20.80
2007,07,17,13,41,20.80
2007,07,17,13,42,20.70
2007,07,17,13,43,20.60
2007,07,17,13,44,20.60
2007,07,17,13,45,20.50
2007,07,17,13,46,20.50
2007,07,17,13,47,20.50
2007,07,17,13,48,20.40
2007,07,17,13,49,20.50
2007,07,17,13,50,20.50
2007,07,17,13,51,20.50
2007,07,17,13,52,20.60
2007,07,17,13,53,20.60
2007,07,17,13,54,20.60
2007,07,17,13,55,20.50
2007,07,17,13,56,20.50
2007,07,17,13,57,20.50
2007,07,17,13,58,20.50
2007,07,17,13,59,20.40
2007,07,17,14,00,20.50
2007,07,17,14,01,20.60
2007,07,17,14,02,20.60
2007,07,17,14,03,20.60
2007,07,17,14,04,20.50
2007,07,17,14,05,20.40
2007,07,17,14,06,20.30
2007,07,17,14,07,20.30
2007,07,17,14,08,20.30
2007,07,17,14,09,20.30
2007,07,17,14,10,20.30
2007,07,17,14,11,20.20
2007,07,17,14,12,20.20
2007,07,17,14,13,20.30
2007,07,17,14,14,20.40
2007,07,17,14,15,20.40
2007,07,17,14,16,20.50
2007,07,17,14,17,20.50
2007,07,17,14,18,20.60
2007,07,17,14,19,20.70
2007,07,17,14,20,20.70
2007,07,17,14,21,20.70
2007,07,17,14,22,20.60
2007,07,17,14,23,20.60
2007,07,17,14,24,20.60
2007,07,17,14,25,20.50
2007,07,17,14,26,20.50
2007,07,17,14,27,20.40
2007,07,17,14,28,20.30
2007,07,17,14,29,20.30
2007,07,17,14,30,20.30
2007,07,17,14,31,20.30
2007,07,17,14,32,20.30
2007,07,17,14,33,20.30
2007,07,17,14,34,20.20
2007,07,17,14,35,20.10
2007,07,17,14,36,20.10
2007,07,17,14,37,20.00
2007,07,17,14,38,20.00
2007,07,17,14,39,20.00
2007,07,17,14,40,19.90
2007,07,17,14,41,19.80
2007,07,17,14,42,19.80
2007,07,17,14,43,19.80
2007,07,17,14,44,19.70
2007,07,17,14,45,19.80
2007,07,17,14,46,19.80
2007,07,17,14,47,19.80
2007,07,17,14,48,19.70
2007,07,17,14,49,19.70
2007,07,17,14,50,19.70
2007,07,17,14,51,19.60
2007,07,17,14,52,19.60
2007,07,17,14,53,19.50
2007,07,17,14,54,19.50
2007,07,17,14,55,19.50
2007,07,17,14,56,19.40
2007,07,17,14,57,19.40
2007,07,17,14,58,19.50
2007,07,17,14,59,19.50
2007,07,17,15,00,19.60
2007,07,17,15,01,19.60
2007,07,17,15,02,19.60
2007,07,17,15,03,19.60
2007,07,17,15,04,19.60
2007,07,17,15,05,19.60
2007,07,17,15,06,19.60
2007,07,17,15,07,19.60
2007,07,17,15,08,19.60
2007,07,17,15,09,19.60
2007,07,17,15,10,19.60
2007,07,17,15,11,19.70
2007,07,17,15,12,19.70
2007,07,17,15,13,19.70
2007,07,17,15,14,19.70
2007,07,17,15,15,19.70
2007,07,17,15,16,19.80
2007,07,17,15,17,19.80
2007,07,17,15,18,19.80
2007,07,17,15,19,19.80
2007,07,17,15,20,19.80
2007,07,17,15,21,19.80
2007,07,17,15,22,19.80
2007,07,17,15,23,19.80
2007,07,17,15,24,19.90
2007,07,17,15,25,19.90
2007,07,17,15,26,19.90
2007,07,17,15,27,19.90
2007,07,17,15,28,19.90
2007,07,17,15,29,19.90
2007,07,17,15,30,19.90
2007,07,17,15,31,19.90
2007,07,17,15,32,19.90
2007,07,17,15,33,19.90
2007,07,17,15,34,19.90
2007,07,17,15,35,19.90
2007,07,17,15,36,19.90
2007,07,17,15,37,19.90
2007,07,17,15,38,19.90
2007,07,17,15,39,19.90
2007,07,17,15,40,19.90
2007,07,17,15,41,19.90
2007,07,17,15,42,19.80
2007,07,17,15,43,19.80
2007,07,17,15,44,19.80
2007,07,17,15,45,19.80
2007,07,17,15,46,19.80
2007,07,17,15,47,19.80
2007,07,17,15,48,19.80
2007,07,17,15,49,19.80
2007,07,17,15,50,19.80
2007,07,17,15,51,19.80
2007,07,17,15,52,19.80
2007,07,17,15,53,19.80
2007,07,17,15,54,19.90
2007,07,17,15,55,19.90
2007,07,17,15,56,19.90
2007,07,17,15,57,19.90
2007,07,17,15,58,19.90
2007,07,17,15,59,19.90
2007,07,17,16,00,19.90
2007,07,17,16,01,19.90
2007,07,17,16,02,19.90
2007,07,17,16,03,19.90
2007,07,17,16,04,20.00
2007,07,17,16,05,20.00
2007,07,17,16,06,20.00
2007,07,17,16,07,20.00
2007,07,17,16,08,20.10
2007,07,17,16,09,20.10
2007,07,17,16,10,20.10
2007,07,17,16,11,20.10
2007,07,17,16,12,20.10
2007,07,17,16,13,20.10
2007,07,17,16,14,20.10
2007,07,17,16,15,20.20
2007,07,17,16,16,20.20
2007,07,17,16,17,20.20
2007,07,17,16,18,20.20
2007,07,17,16,19,20.20
2007,07,17,16,20,20.10
2007,07,17,16,21,20.10
2007,07,17,16,22,20.10
2007,07,17,16,23,20.10
2007,07,17,16,24,20.10
2007,07,17,16,25,20.10
2007,07,17,16,26,20.00
2007,07,17,16,27,20.00
2007,07,17,16,28,19.90
2007,07,17,16,29,19.80
2007,07,17,16,30,19.70
2007,07,17,16,31,19.60
2007,07,17,16,32,19.60
2007,07,17,16,33,19.50
2007,07,17,16,34,19.40
2007,07,17,16,35,19.40
2007,07,17,16,36,19.40
2007,07,17,16,37,19.50
2007,07,17,16,38,19.50
2007,07,17,16,39,19.50
2007,07,17,16,40,19.50
2007,07,17,16,41,19.50
2007,07,17,16,42,19.50
2007,07,17,16,43,19.60
2007,07,17,16,44,19.60
2007,07,17,16,45,19.60
2007,07,17,16,46,19.60
2007,07,17,16,47,19.60
2007,07,17,16,48,19.60
2007,07,17,16,49,19.60
2007,07,17,16,50,19.60
2007,07,17,16,51,19.60
2007,07,17,16,52,19.60
2007,07,17,16,53,19.60
2007,07,17,16,54,19.70
2007,07,17,16,55,19.70
2007,07,17,16,56,19.80
2007,07,17,16,57,19.80
2007,07,17,16,58,19.80
2007,07,17,16,59,19.90
2007,07,17,17,00,19.90
2007,07,17,17,01,19.90
2007,07,17,17,02,20.00
2007,07,17,17,03,20.00
2007,07,17,17,04,20.10
2007,07,17,17,05,20.10
2007,07,17,17,06,20.20
2007,07,17,17,07,20.20
2007,07,17,17,08,20.20
2007,07,17,17,09,20.30
2007,07,17,17,10,20.30
2007,07,17,17,11,20.30
2007,07,17,17,12,20.40
2007,07,17,17,13,20.40
2007,07,17,17,14,20.50
2007,07,17,17,15,20.50
2007,07,17,17,16,20.50
2007,07,17,17,17,20.60
2007,07,17,17,18,20.60
2007,07,17,17,19,20.60